When you browse on this site, cookies collect data to enhance your experience and personalize the content and advertising you see.
Visit our Privacy Policy to learn more. By continuing to use the site, you agree to this use of cookies and data.
  • în România
  • Lista ţărilor
  • Pe 7 zile
  • Temperatura apei
  • Hartă satelitară
  • Meteo pe hartă
  • Widget-uri
  • user-avatar
    Intrare

    Meteo pe oră la Pozarzysko

    Astăzi, 17 Iunie, Luni

    Timp Temperatura Precipitaţii Vânt Presiune Umiditate
    00:00 +16°C° 0 mm 1 m/s 747 mmHg 79%
    01:00 +15°C° 0 mm 1 m/s 747 mmHg 81%
    02:00 +15°C° 0 mm 1 m/s 747 mmHg 84%
    03:00 +14°C° 0 mm 1 m/s 747 mmHg 87%
    04:00 +14°C° 0 mm 1 m/s 747 mmHg 90%
    05:00 +15°C° 0 mm 1 m/s 747 mmHg 86%
    06:00 +18°C° 0 mm 1 m/s 747 mmHg 81%
    07:00 +19°C° 0 mm 1 m/s 748 mmHg 76%
    08:00 +19°C° 0 mm 2 m/s 747 mmHg 70%
    09:00 +20°C° 0 mm 2 m/s 747 mmHg 63%
    10:00 +21°C° 0 mm 3 m/s 747 mmHg 57%
    11:00 +22°C° 0 mm 3 m/s 747 mmHg 55%
    12:00 +24°C° 0 mm 3 m/s 747 mmHg 53%
    13:00 +24°C° 0 mm 3 m/s 747 mmHg 51%
    14:00 +24°C° 0 mm 3 m/s 747 mmHg 53%
    15:00 +24°C° 0 mm 3 m/s 746 mmHg 54%
    16:00 +24°C° 0 mm 3 m/s 746 mmHg 56%
    17:00 +22°C° 0 mm 3 m/s 746 mmHg 63%
    18:00 +21°C° 0 mm 2 m/s 746 mmHg 69%
    19:00 +20°C° 0 mm 2 m/s 746 mmHg 76%
    20:00 +19°C° 0 mm 2 m/s 746 mmHg 79%
    21:00 +18°C° 0 mm 1 m/s 746 mmHg 82%
    22:00 +16°C° 0 mm 1 m/s 746 mmHg 85%
    23:00 +15°C° 0 mm 1 m/s 746 mmHg 86%

    Mâine, 18 Iunie, Marţi

    Timp Temperatura Precipitaţii Vânt Presiune Umiditate
    00:00 +15°C° 0 mm 1 m/s 746 mmHg 87%
    01:00 +14°C° 0 mm 1 m/s 746 mmHg 89%
    02:00 +13°C° 0 mm 0 m/s 746 mmHg 90%
    03:00 +13°C° 0 mm 0 m/s 745 mmHg 91%
    04:00 +13°C° 0 mm 0 m/s 745 mmHg 92%
    05:00 +15°C° 0 mm 1 m/s 745 mmHg 90%
    06:00 +18°C° 0 mm 1 m/s 745 mmHg 88%
    07:00 +18°C° 0 mm 2 m/s 745 mmHg 86%
    08:00 +20°C° 0 mm 2 m/s 745 mmHg 81%
    09:00 +21°C° 0 mm 3 m/s 745 mmHg 77%
    10:00 +22°C° 0 mm 3 m/s 745 mmHg 73%
    11:00 +24°C° 0 mm 3 m/s 745 mmHg 71%
    12:00 +25°C° 0 mm 3 m/s 744 mmHg 68%
    13:00 +25°C° 0 mm 3 m/s 744 mmHg 66%
    14:00 +25°C° 0 mm 3 m/s 743 mmHg 66%
    15:00 +26°C° 0 mm 3 m/s 743 mmHg 66%
    16:00 +26°C° 0 mm 3 m/s 743 mmHg 66%
    17:00 +25°C° 0 mm 3 m/s 742 mmHg 71%
    18:00 +24°C° 0 mm 3 m/s 742 mmHg 76%
    19:00 +23°C° 0 mm 2 m/s 742 mmHg 81%
    20:00 +21°C° 0 mm 2 m/s 742 mmHg 85%
    21:00 +20°C° 0 mm 2 m/s 742 mmHg 88%
    22:00 +19°C° 0 mm 1 m/s 742 mmHg 91%
    23:00 +19°C° 0 mm 1 m/s 742 mmHg 92%

    Poimâine, 19 Iunie, Miercuri

    Timp Temperatura Precipitaţii Vânt Presiune Umiditate
    00:00 +19°C° 0 mm 1 m/s 741 mmHg 93%
    01:00 +18°C° 0 mm 1 m/s 741 mmHg 93%
    02:00 +18°C° 0 mm 1 m/s 741 mmHg 93%
    03:00 +18°C° 0 mm 1 m/s 741 mmHg 93%
    04:00 +18°C° 0 mm 1 m/s 740 mmHg 93%
    05:00 +19°C° 0 mm 1 m/s 740 mmHg 89%
    06:00 +21°C° 0 mm 1 m/s 741 mmHg 86%
    07:00 +22°C° 0 mm 1 m/s 741 mmHg 82%
    08:00 +24°C° 0 mm 1 m/s 740 mmHg 76%
    09:00 +25°C° 0 mm 1 m/s 740 mmHg 70%
    10:00 +27°C° 0 mm 1 m/s 740 mmHg 64%
    11:00 +28°C° 0 mm 1 m/s 740 mmHg 61%
    12:00 +28°C° 0 mm 1 m/s 740 mmHg 57%
    13:00 +29°C° 0 mm 1 m/s 740 mmHg 53%
    14:00 +29°C° 0.1 mm 1 m/s 739 mmHg 55%
    15:00 +29°C° 0.1 mm 1 m/s 739 mmHg 58%
    16:00 +29°C° 0.1 mm 2 m/s 739 mmHg 60%
    17:00 +27°C° 0.2 mm 2 m/s 739 mmHg 65%
    18:00 +26°C° 0.2 mm 1 m/s 739 mmHg 71%
    19:00 +25°C° 0.2 mm 1 m/s 738 mmHg 76%
    20:00 +24°C° 0 mm 2 m/s 739 mmHg 78%
    21:00 +23°C° 0 mm 2 m/s 739 mmHg 80%
    22:00 +21°C° 0 mm 2 m/s 739 mmHg 82%
    23:00 +20°C° 0 mm 2 m/s 739 mmHg 83%

    20 Iunie, Joi

    Timp Temperatura Precipitaţii Vânt Presiune Umiditate
    00:00 +20°C° 0 mm 2 m/s 739 mmHg 83%
    01:00 +19°C° 0 mm 2 m/s 738 mmHg 84%
    02:00 +19°C° 0 mm 2 m/s 739 mmHg 84%
    03:00 +19°C° 0 mm 2 m/s 739 mmHg 85%
    04:00 +20°C° 0 mm 1 m/s 739 mmHg 85%
    05:00 +21°C° 0 mm 1 m/s 739 mmHg 81%
    06:00 +23°C° 0 mm 1 m/s 739 mmHg 76%
    07:00 +25°C° 0 mm 1 m/s 739 mmHg 72%
    08:00 +26°C° 0 mm 1 m/s 740 mmHg 68%
    09:00 +27°C° 0 mm 1 m/s 740 mmHg 63%
    10:00 +29°C° 0 mm 2 m/s 740 mmHg 58%
    11:00 +29°C° 0.3 mm 2 m/s 740 mmHg 59%
    12:00 +29°C° 0.3 mm 2 m/s 740 mmHg 60%
    13:00 +29°C° 0.3 mm 3 m/s 740 mmHg 60%
    14:00 +29°C° 0.4 mm 2 m/s 740 mmHg 60%
    15:00 +29°C° 0.4 mm 2 m/s 740 mmHg 60%
    16:00 +29°C° 0.4 mm 2 m/s 740 mmHg 60%
    17:00 +27°C° 0.5 mm 2 m/s 740 mmHg 66%
    18:00 +26°C° 0.5 mm 2 m/s 740 mmHg 71%
    19:00 +25°C° 0.5 mm 2 m/s 740 mmHg 77%
    20:00 +24°C° 0.7 mm 1 m/s 740 mmHg 79%
    21:00 +22°C° 0.7 mm 1 m/s 740 mmHg 81%
    22:00 +21°C° 0.7 mm 1 m/s 740 mmHg 83%
    23:00 +21°C° 0.3 mm 1 m/s 740 mmHg 85%

    21 Iunie, Vineri

    Timp Temperatura Precipitaţii Vânt Presiune Umiditate
    00:00 +20°C° 0.3 mm 1 m/s 740 mmHg 87%
    01:00 +20°C° 0.3 mm 1 m/s 740 mmHg 89%
    02:00 +19°C° 0.5 mm 1 m/s 740 mmHg 91%
    03:00 +19°C° 0.5 mm 1 m/s 740 mmHg 92%
    04:00 +19°C° 0.5 mm 1 m/s 740 mmHg 93%
    05:00 +19°C° 0.4 mm 2 m/s 740 mmHg 93%
    06:00 +19°C° 0.4 mm 3 m/s 740 mmHg 92%
    07:00 +20°C° 0.4 mm 3 m/s 741 mmHg 92%
    08:00 +21°C° 0.2 mm 4 m/s 741 mmHg 89%
    09:00 +21°C° 0.2 mm 4 m/s 741 mmHg 86%
    10:00 +22°C° 0.2 mm 4 m/s 741 mmHg 84%
    11:00 +23°C° 0.1 mm 4 m/s 741 mmHg 82%
    12:00 +23°C° 0.1 mm 4 m/s 740 mmHg 80%
    13:00 +25°C° 0.1 mm 3 m/s 740 mmHg 79%
    14:00 +25°C° 0.1 mm 3 m/s 740 mmHg 78%
    15:00 +25°C° 0.1 mm 3 m/s 740 mmHg 78%
    16:00 +25°C° 0.1 mm 3 m/s 740 mmHg 78%
    17:00 +24°C° 0.4 mm 3 m/s 740 mmHg 81%
    18:00 +24°C° 0.4 mm 3 m/s 740 mmHg 84%
    19:00 +22°C° 0.4 mm 3 m/s 740 mmHg 87%
    20:00 +21°C° 0.3 mm 3 m/s 740 mmHg 90%
    21:00 +20°C° 0.3 mm 3 m/s 740 mmHg 93%
    22:00 +19°C° 0.3 mm 2 m/s 740 mmHg 96%
    23:00 +18°C° 0.1 mm 2 m/s 740 mmHg 96%

    22 Iunie, Sâmbătă

    Timp Temperatura Precipitaţii Vânt Presiune Umiditate
    00:00 +18°C° 0.1 mm 3 m/s 740 mmHg 96%
    01:00 +18°C° 0.1 mm 3 m/s 740 mmHg 97%
    02:00 +18°C° 0 mm 3 m/s 740 mmHg 97%
    03:00 +18°C° 0 mm 3 m/s 740 mmHg 97%
    04:00 +18°C° 0 mm 3 m/s 740 mmHg 97%
    05:00 +18°C° 1.1 mm 3 m/s 740 mmHg 97%
    06:00 +18°C° 1.1 mm 3 m/s 741 mmHg 97%
    07:00 +18°C° 1.1 mm 3 m/s 741 mmHg 97%
    08:00 +18°C° 0.7 mm 3 m/s 741 mmHg 97%
    09:00 +18°C° 0.7 mm 3 m/s 741 mmHg 96%
    10:00 +18°C° 0.7 mm 3 m/s 740 mmHg 96%
    11:00 +18°C° 0.4 mm 3 m/s 740 mmHg 95%
    12:00 +18°C° 0.4 mm 3 m/s 740 mmHg 94%
    13:00 +19°C° 0.4 mm 3 m/s 740 mmHg 93%
    14:00 +19°C° 0.1 mm 4 m/s 740 mmHg 93%
    15:00 +19°C° 0.1 mm 4 m/s 740 mmHg 92%
    16:00 +18°C° 0.1 mm 4 m/s 740 mmHg 91%
    17:00 +18°C° 0.2 mm 4 m/s 740 mmHg 92%
    18:00 +18°C° 0.2 mm 3 m/s 740 mmHg 93%
    19:00 +18°C° 0.2 mm 3 m/s 740 mmHg 94%
    20:00 +18°C° 0.1 mm 3 m/s 740 mmHg 95%
    21:00 +17°C° 0.1 mm 3 m/s 741 mmHg 96%
    22:00 +17°C° 0.1 mm 2 m/s 741 mmHg 97%
    23:00 +17°C° 0.1 mm 2 m/s 741 mmHg 97%
    Arată mai mult